Time,TemperatureF,DewpointF,PressureIn,WindDirection,WindDirectionDegrees,WindSpeedMPH,WindSpeedGustMPH,Humidity,HourlyPrecipIn,Conditions,Clouds,dailyrainin,SoftwareType,DateUTC
2013-05-29 00:01:00,60.5,57.9,29.72,NE,38,5.0,5.0,91,0.00,,,0.00,VWS V12.08,2013-05-29 05:01:00,
2013-05-29 00:06:00,60.3,58.0,29.71,NE,42,6.0,9.0,92,0.00,,,0.00,VWS V12.08,2013-05-29 05:06:00,
2013-05-29 00:11:00,60.0,57.7,29.70,NNE,28,8.0,11.0,92,0.00,,,0.00,VWS V12.08,2013-05-29 05:11:00,
2013-05-29 00:16:00,59.9,57.9,29.71,ESE,111,2.0,13.0,93,0.00,,,0.00,VWS V12.08,2013-05-29 05:16:00,
2013-05-29 00:21:00,59.9,57.9,29.71,ENE,74,2.0,13.0,93,0.00,,,0.00,VWS V12.08,2013-05-29 05:21:00,
2013-05-29 00:26:00,59.6,57.6,29.71,ENE,64,4.0,13.0,93,0.00,,,0.00,VWS V12.08,2013-05-29 05:26:00,
2013-05-29 00:31:00,59.3,57.6,29.70,NE,49,5.0,5.0,94,0.00,,,0.00,VWS V12.08,2013-05-29 05:31:00,
2013-05-29 00:36:00,59.0,57.3,29.70,NNE,22,5.0,6.0,94,0.00,,,0.00,VWS V12.08,2013-05-29 05:36:00,
2013-05-29 00:41:00,58.8,57.4,29.69,NE,46,4.0,6.0,95,0.00,,,0.00,VWS V12.08,2013-05-29 05:41:00,
2013-05-29 00:46:00,58.7,57.3,29.69,NE,46,6.0,6.0,95,0.00,,,0.00,VWS V12.08,2013-05-29 05:46:00,
2013-05-29 00:51:00,58.7,57.3,29.69,NE,46,4.0,7.0,95,0.00,,,0.00,VWS V12.08,2013-05-29 05:51:00,
2013-05-29 00:56:00,58.8,57.4,29.69,NE,47,3.0,7.0,95,0.00,,,0.00,VWS V12.08,2013-05-29 05:56:00,
2013-05-29 01:01:00,58.8,57.4,29.70,ENE,75,5.0,5.0,95,0.00,,,0.00,VWS V12.08,2013-05-29 06:01:00,
2013-05-29 01:06:00,58.7,57.3,29.69,NE,41,2.0,5.0,95,0.00,,,0.00,VWS V12.08,2013-05-29 06:06:00,
2013-05-29 01:11:00,58.6,57.2,29.70,NE,50,4.0,6.0,95,0.00,,,0.00,VWS V12.08,2013-05-29 06:11:00,
2013-05-29 01:16:00,58.5,57.1,29.70,East,88,1.0,6.0,95,0.00,,,0.00,VWS V12.08,2013-05-29 06:16:00,
2013-05-29 01:21:00,58.5,57.4,29.70,East,96,3.0,6.0,96,0.00,,,0.00,VWS V12.08,2013-05-29 06:21:00,
2013-05-29 01:26:00,58.8,57.7,29.70,ENE,73,4.0,6.0,96,0.00,,,0.00,VWS V12.08,2013-05-29 06:26:00,
2013-05-29 01:31:00,59.0,57.9,29.70,NE,44,2.0,2.0,96,0.00,,,0.00,VWS V12.08,2013-05-29 06:31:00,
2013-05-29 01:36:00,59.0,57.6,29.70,East,86,1.0,5.0,95,0.00,,,0.00,VWS V12.08,2013-05-29 06:36:00,
2013-05-29 01:41:00,58.9,57.5,29.70,East,95,1.0,5.0,95,0.00,,,0.00,VWS V12.08,2013-05-29 06:41:00,
2013-05-29 01:46:00,59.0,57.6,29.70,ENE,61,2.0,5.0,95,0.00,,,0.00,VWS V12.08,2013-05-29 06:46:00,
2013-05-29 01:51:00,58.8,57.4,29.70,East,84,4.0,5.0,95,0.00,,,0.00,VWS V12.08,2013-05-29 06:51:00,
2013-05-29 01:56:00,58.7,57.3,29.69,East,90,2.0,5.0,95,0.00,,,0.00,VWS V12.08,2013-05-29 06:56:00,
2013-05-29 02:01:00,58.6,57.2,29.69,NNE,32,4.0,4.0,95,0.00,,,0.00,VWS V12.08,2013-05-29 07:01:00,
2013-05-29 02:06:00,58.4,57.3,29.69,NNE,32,2.0,4.0,96,0.00,,,0.00,VWS V12.08,2013-05-29 07:06:00,
2013-05-29 02:11:00,58.3,57.2,29.70,NE,40,4.0,5.0,96,0.00,,,0.00,VWS V12.08,2013-05-29 07:11:00,
2013-05-29 02:16:00,58.3,57.2,29.69,ENE,61,5.0,7.0,96,0.00,,,0.00,VWS V12.08,2013-05-29 07:16:00,
2013-05-29 02:21:00,58.3,57.2,29.69,NE,35,6.0,7.0,96,0.00,,,0.00,VWS V12.08,2013-05-29 07:21:00,
2013-05-29 02:26:00,58.3,57.2,29.69,NE,49,3.0,7.0,96,0.00,,,0.00,VWS V12.08,2013-05-29 07:26:00,
2013-05-29 02:31:00,58.2,57.1,29.69,NE,50,6.0,6.0,96,0.00,,,0.00,VWS V12.08,2013-05-29 07:31:00,
2013-05-29 02:36:00,57.8,56.7,29.68,NNE,22,6.0,9.0,96,0.00,,,0.00,VWS V12.08,2013-05-29 07:36:00,
2013-05-29 02:41:00,57.7,56.9,29.67,NE,45,6.0,11.0,97,0.00,,,0.00,VWS V12.08,2013-05-29 07:41:00,
2013-05-29 02:46:00,57.7,56.9,29.68,NE,51,5.0,11.0,97,0.00,,,0.00,VWS V12.08,2013-05-29 07:46:00,
2013-05-29 02:51:00,57.8,57.0,29.67,ENE,68,5.0,11.0,97,0.00,,,0.00,VWS V12.08,2013-05-29 07:51:00,
2013-05-29 02:56:00,57.9,57.1,29.67,NE,54,5.0,11.0,97,0.00,,,0.00,VWS V12.08,2013-05-29 07:56:00,
2013-05-29 03:01:00,57.9,57.1,29.68,ENE,59,4.0,4.0,97,0.00,,,0.00,VWS V12.08,2013-05-29 08:01:00,
2013-05-29 03:06:00,57.9,57.1,29.67,NE,53,6.0,9.0,97,0.00,,,0.00,VWS V12.08,2013-05-29 08:06:00,
2013-05-29 03:11:00,57.8,57.0,29.67,NE,54,5.0,9.0,97,0.00,,,0.00,VWS V12.08,2013-05-29 08:11:00,
2013-05-29 03:16:00,57.7,56.9,29.67,NNE,28,2.0,10.0,97,0.00,,,0.00,VWS V12.08,2013-05-29 08:16:00,
2013-05-29 03:21:00,57.7,56.9,29.67,NE,50,3.0,10.0,97,0.00,,,0.00,VWS V12.08,2013-05-29 08:21:00,
2013-05-29 03:26:00,57.8,57.0,29.68,NNE,15,2.0,10.0,97,0.00,,,0.00,VWS V12.08,2013-05-29 08:26:00,
2013-05-29 03:31:00,57.7,56.9,29.68,NNE,20,2.0,2.0,97,0.00,,,0.00,VWS V12.08,2013-05-29 08:31:00,
2013-05-29 03:36:00,57.8,57.2,29.68,ENE,58,6.0,7.0,98,0.00,,,0.00,VWS V12.08,2013-05-29 08:36:00,
2013-05-29 03:41:00,57.9,57.3,29.69,East,84,2.0,7.0,98,0.00,,,0.00,VWS V12.08,2013-05-29 08:41:00,
2013-05-29 03:46:00,57.8,57.2,29.69,ENE,69,4.0,9.0,98,0.00,,,0.00,VWS V12.08,2013-05-29 08:46:00,
2013-05-29 03:51:00,57.8,57.2,29.69,ENE,59,7.0,9.0,98,0.00,,,0.00,VWS V12.08,2013-05-29 08:51:00,
2013-05-29 03:56:00,57.8,57.2,29.68,NE,49,4.0,9.0,98,0.00,,,0.00,VWS V12.08,2013-05-29 08:56:00,
2013-05-29 04:01:00,57.9,57.3,29.69,ENE,65,10.0,10.0,98,0.00,,,0.00,VWS V12.08,2013-05-29 09:01:00,
2013-05-29 04:06:00,57.8,57.2,29.69,NE,55,4.0,10.0,98,0.00,,,0.00,VWS V12.08,2013-05-29 09:06:00,
2013-05-29 04:11:00,57.8,57.2,29.69,ENE,65,4.0,10.0,98,0.00,,,0.00,VWS V12.08,2013-05-29 09:11:00,
2013-05-29 04:16:00,57.7,57.1,29.68,NE,40,4.0,11.0,98,0.00,,,0.00,VWS V12.08,2013-05-29 09:16:00,
2013-05-29 04:21:00,57.7,57.1,29.69,NE,46,5.0,12.0,98,0.00,,,0.00,VWS V12.08,2013-05-29 09:21:00,
2013-05-29 04:26:00,57.8,57.2,29.69,NE,50,7.0,12.0,98,0.00,,,0.00,VWS V12.08,2013-05-29 09:26:00,
2013-05-29 04:31:00,57.7,57.1,29.69,ENE,61,9.0,9.0,98,0.00,,,0.00,VWS V12.08,2013-05-29 09:31:00,
2013-05-29 04:36:00,57.7,57.1,29.68,East,97,5.0,9.0,98,0.00,,,0.00,VWS V12.08,2013-05-29 09:36:00,
2013-05-29 04:41:00,57.8,57.2,29.67,NE,52,7.0,10.0,98,0.00,,,0.00,VWS V12.08,2013-05-29 09:41:00,
2013-05-29 04:46:00,58.0,57.4,29.68,NNE,13,7.0,10.0,98,0.00,,,0.00,VWS V12.08,2013-05-29 09:46:00,
2013-05-29 04:51:00,58.2,57.6,29.68,North,5,5.0,10.0,98,0.00,,,0.00,VWS V12.08,2013-05-29 09:51:00,
2013-05-29 04:56:00,58.3,57.7,29.68,NE,38,3.0,10.0,98,0.00,,,0.00,VWS V12.08,2013-05-29 09:56:00,
2013-05-29 05:01:00,58.7,58.4,29.68,NE,39,6.0,7.0,99,0.00,,,0.00,VWS V12.08,2013-05-29 10:01:00,
2013-05-29 05:06:00,59.0,58.7,29.68,NE,55,7.0,10.0,99,0.00,,,0.00,VWS V12.08,2013-05-29 10:06:00,
2013-05-29 05:11:00,59.2,58.9,29.68,NE,53,6.0,10.0,99,0.00,,,0.00,VWS V12.08,2013-05-29 10:11:00,
2013-05-29 05:16:00,59.3,59.0,29.68,ENE,61,7.0,10.0,99,0.00,,,0.00,VWS V12.08,2013-05-29 10:16:00,
2013-05-29 05:21:00,59.4,59.1,29.68,ENE,63,8.0,10.0,99,0.00,,,0.00,VWS V12.08,2013-05-29 10:21:00,
2013-05-29 05:26:00,59.5,59.2,29.68,NE,38,4.0,10.0,99,0.00,,,0.00,VWS V12.08,2013-05-29 10:26:00,
2013-05-29 05:31:00,59.6,59.3,29.68,ENE,76,6.0,6.0,99,0.00,,,0.00,VWS V12.08,2013-05-29 10:31:00,
2013-05-29 05:36:00,60.0,59.7,29.68,ENE,71,4.0,7.0,99,0.00,,,0.00,VWS V12.08,2013-05-29 10:36:00,
2013-05-29 05:41:00,60.4,60.1,29.68,ENE,66,4.0,7.0,99,0.00,,,0.00,VWS V12.08,2013-05-29 10:41:00,
2013-05-29 05:46:00,60.8,60.5,29.67,East,84,6.0,8.0,99,0.00,,,0.00,VWS V12.08,2013-05-29 10:46:00,
2013-05-29 05:51:00,60.9,60.6,29.67,ENE,67,6.0,10.0,99,0.00,,,0.00,VWS V12.08,2013-05-29 10:51:00,
2013-05-29 05:56:00,61.0,60.7,29.67,ENE,65,8.0,12.0,99,0.00,,,0.00,VWS V12.08,2013-05-29 10:56:00,
2013-05-29 06:01:00,61.0,60.7,29.66,ENE,61,8.0,9.0,99,0.00,,,0.00,VWS V12.08,2013-05-29 11:01:00,
2013-05-29 06:06:00,60.9,60.6,29.66,ENE,66,6.0,12.0,99,0.00,,,0.00,VWS V12.08,2013-05-29 11:06:00,
2013-05-29 06:11:00,60.9,60.6,29.66,East,81,5.0,12.0,99,0.00,,,0.00,VWS V12.08,2013-05-29 11:11:00,
2013-05-29 06:16:00,60.9,60.6,29.66,NE,54,8.0,13.0,99,0.00,,,0.00,VWS V12.08,2013-05-29 11:16:00,
2013-05-29 06:20:00,60.8,60.5,29.66,ENE,59,11.0,13.0,99,0.00,,,0.00,VWS V12.08,2013-05-29 11:20:00,
2013-05-29 06:25:00,60.8,60.5,29.66,ENE,71,6.0,13.0,99,0.00,,,0.00,VWS V12.08,2013-05-29 11:25:00,
2013-05-29 06:30:00,60.7,60.4,29.66,ENE,70,7.0,7.0,99,0.00,,,0.00,VWS V12.08,2013-05-29 11:30:00,
2013-05-29 06:35:00,60.7,60.4,29.66,East,96,12.0,13.0,99,0.00,,,0.00,VWS V12.08,2013-05-29 11:35:00,
2013-05-29 06:40:00,60.8,60.5,29.67,ENE,71,5.0,13.0,99,0.00,,,0.00,VWS V12.08,2013-05-29 11:40:00,
2013-05-29 06:45:00,60.9,60.6,29.67,ENE,61,3.0,13.0,99,0.00,,,0.00,VWS V12.08,2013-05-29 11:45:00,
2013-05-29 06:50:00,60.9,60.6,29.67,East,82,11.0,14.0,99,0.00,,,0.00,VWS V12.08,2013-05-29 11:50:00,
2013-05-29 06:55:00,60.9,60.6,29.67,East,81,13.0,14.0,99,0.00,,,0.00,VWS V12.08,2013-05-29 11:55:00,
2013-05-29 07:00:00,61.0,60.7,29.67,SE,130,7.0,10.0,99,0.00,,,0.00,VWS V12.08,2013-05-29 12:00:00,
2013-05-29 07:05:00,61.1,60.8,29.67,ENE,74,10.0,13.0,99,0.00,,,0.00,VWS V12.08,2013-05-29 12:05:00,
2013-05-29 07:10:00,61.1,60.8,29.67,East,85,7.0,13.0,99,0.00,,,0.00,VWS V12.08,2013-05-29 12:10:00,
2013-05-29 07:15:00,61.2,60.9,29.67,East,95,10.0,13.0,99,0.00,,,0.00,VWS V12.08,2013-05-29 12:15:00,
2013-05-29 07:20:00,61.3,61.0,29.67,ENE,65,4.0,13.0,99,0.00,,,0.00,VWS V12.08,2013-05-29 12:20:00,
2013-05-29 07:25:00,61.4,61.1,29.67,ENE,67,9.0,13.0,99,0.00,,,0.00,VWS V12.08,2013-05-29 12:25:00,
2013-05-29 07:30:00,61.6,61.3,29.66,ENE,64,11.0,11.0,99,0.00,,,0.00,VWS V12.08,2013-05-29 12:30:00,
2013-05-29 07:35:00,61.6,61.3,29.66,ESE,106,9.0,14.0,99,0.00,,,0.00,VWS V12.08,2013-05-29 12:35:00,
2013-05-29 07:40:00,61.7,61.4,29.66,ENE,59,8.0,14.0,99,0.00,,,0.00,VWS V12.08,2013-05-29 12:40:00,
2013-05-29 07:45:00,61.8,61.5,29.65,ESE,111,2.0,14.0,99,0.00,,,0.00,VWS V12.08,2013-05-29 12:45:00,
2013-05-29 07:50:00,62.0,61.7,29.65,East,98,12.0,16.0,99,0.00,,,0.00,VWS V12.08,2013-05-29 12:50:00,
2013-05-29 07:55:00,62.2,61.9,29.65,East,88,10.0,16.0,99,0.00,,,0.00,VWS V12.08,2013-05-29 12:55:00,
2013-05-29 08:00:00,62.3,62.0,29.65,ESE,103,4.0,16.0,99,0.00,,,0.00,VWS V12.08,2013-05-29 13:00:00,
2013-05-29 08:05:00,62.4,62.1,29.65,East,97,4.0,12.0,99,0.00,,,0.00,VWS V12.08,2013-05-29 13:05:00,
2013-05-29 08:10:00,62.6,62.3,29.65,ESE,123,4.0,12.0,99,0.00,,,0.01,VWS V12.08,2013-05-29 13:10:00,
2013-05-29 08:15:00,62.7,62.4,29.65,ESE,121,2.0,13.0,99,0.01,,,0.01,VWS V12.08,2013-05-29 13:15:00,
2013-05-29 08:20:00,62.8,62.5,29.65,East,94,5.0,14.0,99,0.01,,,0.01,VWS V12.08,2013-05-29 13:20:00,
2013-05-29 08:25:00,62.9,62.6,29.65,ENE,74,10.0,14.0,99,0.01,,,0.01,VWS V12.08,2013-05-29 13:25:00,
2013-05-29 08:30:00,63.1,62.5,29.64,East,100,10.0,14.0,98,0.01,,,0.01,VWS V12.08,2013-05-29 13:30:00,
2013-05-29 08:35:00,63.3,62.7,29.64,ESE,111,9.0,10.0,98,0.01,,,0.01,VWS V12.08,2013-05-29 13:35:00,
2013-05-29 08:40:00,63.6,63.0,29.64,South,169,1.0,10.0,98,0.01,,,0.01,VWS V12.08,2013-05-29 13:40:00,
2013-05-29 08:45:00,63.8,63.2,29.64,ESE,111,14.0,15.0,98,0.01,,,0.01,VWS V12.08,2013-05-29 13:45:00,
2013-05-29 08:50:00,63.9,63.3,29.64,SE,139,8.0,15.0,98,0.01,,,0.01,VWS V12.08,2013-05-29 13:50:00,
2013-05-29 08:55:00,64.0,63.1,29.64,ESE,111,11.0,15.0,97,0.01,,,0.01,VWS V12.08,2013-05-29 13:55:00,
2013-05-29 09:00:00,64.1,63.2,29.64,SSE,157,12.0,19.0,97,0.01,,,0.01,VWS V12.08,2013-05-29 14:00:00,
2013-05-29 09:05:00,64.3,63.4,29.63,ESE,105,13.0,18.0,97,0.01,,,0.01,VWS V12.08,2013-05-29 14:05:00,
2013-05-29 09:10:00,64.6,63.7,29.64,SSE,150,10.0,18.0,97,0.01,,,0.01,VWS V12.08,2013-05-29 14:10:00,
2013-05-29 09:15:00,64.9,63.7,29.64,SE,142,9.0,18.0,96,0.01,,,0.01,VWS V12.08,2013-05-29 14:15:00,
2013-05-29 09:20:00,65.3,64.1,29.63,SE,127,16.0,18.0,96,0.01,,,0.01,VWS V12.08,2013-05-29 14:20:00,
2013-05-29 09:25:00,65.8,64.6,29.63,SE,136,14.0,18.0,96,0.01,,,0.01,VWS V12.08,2013-05-29 14:25:00,
2013-05-29 09:30:00,66.2,64.7,29.62,ESE,105,15.0,20.0,95,0.01,,,0.01,VWS V12.08,2013-05-29 14:30:00,
2013-05-29 09:35:00,66.5,65.0,29.62,SE,126,6.0,18.0,95,0.00,,,0.01,VWS V12.08,2013-05-29 14:35:00,
2013-05-29 09:40:00,66.7,64.9,29.62,ESE,119,11.0,18.0,94,0.00,,,0.01,VWS V12.08,2013-05-29 14:40:00,
2013-05-29 09:45:00,66.7,64.9,29.61,SE,127,13.0,18.0,94,0.00,,,0.01,VWS V12.08,2013-05-29 14:45:00,
2013-05-29 09:50:00,66.8,65.0,29.61,SSE,155,10.0,18.0,94,0.00,,,0.01,VWS V12.08,2013-05-29 14:50:00,
2013-05-29 09:55:00,67.0,65.2,29.61,SE,137,9.0,18.0,94,0.00,,,0.01,VWS V12.08,2013-05-29 14:55:00,
2013-05-29 10:00:00,67.2,65.4,29.61,SSE,149,12.0,18.0,94,0.00,,,0.01,VWS V12.08,2013-05-29 15:00:00,
2013-05-29 10:05:00,67.3,65.5,29.60,ESE,107,10.0,18.0,94,0.00,,,0.01,VWS V12.08,2013-05-29 15:05:00,
2013-05-29 10:10:00,67.5,65.4,29.60,ESE,117,13.0,18.0,93,0.00,,,0.01,VWS V12.08,2013-05-29 15:10:00,
2013-05-29 10:15:00,67.7,65.6,29.60,SSE,163,11.0,18.0,93,0.00,,,0.01,VWS V12.08,2013-05-29 15:15:00,
2013-05-29 10:20:00,68.0,65.9,29.60,SSE,148,14.0,18.0,93,0.00,,,0.01,VWS V12.08,2013-05-29 15:20:00,
2013-05-29 10:25:00,68.4,66.3,29.60,ESE,123,11.0,18.0,93,0.00,,,0.01,VWS V12.08,2013-05-29 15:25:00,
2013-05-29 10:30:00,68.7,66.3,29.60,SE,142,14.0,18.0,92,0.00,,,0.01,VWS V12.08,2013-05-29 15:30:00,
2013-05-29 10:35:00,69.0,66.6,29.60,South,191,13.0,17.0,92,0.00,,,0.01,VWS V12.08,2013-05-29 15:35:00,
2013-05-29 10:40:00,69.4,66.7,29.60,SE,130,11.0,20.0,91,0.00,,,0.01,VWS V12.08,2013-05-29 15:40:00,
2013-05-29 10:45:00,69.7,67.0,29.60,SE,134,11.0,20.0,91,0.00,,,0.01,VWS V12.08,2013-05-29 15:45:00,
2013-05-29 10:50:00,69.9,66.8,29.59,SSE,166,12.0,20.0,90,0.00,,,0.01,VWS V12.08,2013-05-29 15:50:00,
2013-05-29 10:55:00,70.2,67.1,29.59,SE,146,15.0,20.0,90,0.00,,,0.01,VWS V12.08,2013-05-29 15:55:00,
2013-05-29 11:00:00,70.5,67.4,29.59,SSE,155,14.0,20.0,90,0.00,,,0.01,VWS V12.08,2013-05-29 16:00:00,
2013-05-29 11:05:00,70.8,67.7,29.58,SE,140,4.0,17.0,90,0.00,,,0.01,VWS V12.08,2013-05-29 16:05:00,
2013-05-29 11:10:00,71.1,67.7,29.58,SE,146,10.0,18.0,89,0.00,,,0.01,VWS V12.08,2013-05-29 16:10:00,
2013-05-29 11:15:00,71.3,67.9,29.58,SE,132,7.0,19.0,89,0.00,,,0.01,VWS V12.08,2013-05-29 16:15:00,
2013-05-29 11:20:00,71.6,67.9,29.58,SSE,153,14.0,19.0,88,0.00,,,0.01,VWS V12.08,2013-05-29 16:20:00,
2013-05-29 11:25:00,71.9,68.2,29.58,ESE,123,10.0,19.0,88,0.00,,,0.01,VWS V12.08,2013-05-29 16:25:00,
2013-05-29 11:30:00,72.1,68.0,29.59,South,180,12.0,23.0,87,0.00,,,0.01,VWS V12.08,2013-05-29 16:30:00,
2013-05-29 11:35:00,72.6,68.5,29.58,SE,136,16.0,23.0,87,0.00,,,0.01,VWS V12.08,2013-05-29 16:35:00,
2013-05-29 11:40:00,73.0,68.6,29.58,SE,144,12.0,23.0,86,0.00,,,0.01,VWS V12.08,2013-05-29 16:40:00,
2013-05-29 11:45:00,73.4,68.6,29.58,SE,142,24.0,24.0,85,0.00,,,0.01,VWS V12.08,2013-05-29 16:45:00,
2013-05-29 11:50:00,73.2,68.4,29.59,East,98,15.0,25.0,85,0.00,,,0.01,VWS V12.08,2013-05-29 16:50:00,
2013-05-29 11:55:00,73.0,68.6,29.59,SE,144,15.0,25.0,86,0.00,,,0.01,VWS V12.08,2013-05-29 16:55:00,
2013-05-29 12:00:00,72.8,68.4,29.59,SE,126,13.0,25.0,86,0.00,,,0.01,VWS V12.08,2013-05-29 17:00:00,
2013-05-29 12:05:00,72.7,68.3,29.59,SSW,209,13.0,26.0,86,0.00,,,0.01,VWS V12.08,2013-05-29 17:05:00,
2013-05-29 12:10:00,72.9,68.5,29.59,SE,142,16.0,26.0,86,0.00,,,0.01,VWS V12.08,2013-05-29 17:10:00,
2013-05-29 12:15:00,72.8,68.4,29.59,SE,134,9.0,28.0,86,0.00,,,0.01,VWS V12.08,2013-05-29 17:15:00,
2013-05-29 12:20:00,72.9,68.5,29.59,SE,139,25.0,28.0,86,0.00,,,0.01,VWS V12.08,2013-05-29 17:20:00,
2013-05-29 12:25:00,73.0,68.6,29.59,SE,142,23.0,28.0,86,0.00,,,0.01,VWS V12.08,2013-05-29 17:25:00,
2013-05-29 12:30:00,73.0,68.6,29.59,SE,130,18.0,29.0,86,0.00,,,0.01,VWS V12.08,2013-05-29 17:30:00,
2013-05-29 12:35:00,72.7,68.3,29.59,SSE,163,19.0,24.0,86,0.00,,,0.01,VWS V12.08,2013-05-29 17:35:00,
2013-05-29 12:40:00,72.5,68.4,29.59,SSW,202,8.0,24.0,87,0.00,,,0.01,VWS V12.08,2013-05-29 17:40:00,
2013-05-29 12:45:00,72.4,68.3,29.59,SE,138,17.0,24.0,87,0.00,,,0.01,VWS V12.08,2013-05-29 17:45:00,
2013-05-29 12:50:00,72.4,68.7,29.59,SSE,150,14.0,24.0,88,0.00,,,0.01,VWS V12.08,2013-05-29 17:50:00,
2013-05-29 12:55:00,72.7,68.6,29.59,SE,146,14.0,24.0,87,0.00,,,0.01,VWS V12.08,2013-05-29 17:55:00,
2013-05-29 13:00:00,72.6,68.2,29.60,SSE,162,13.0,24.0,86,0.00,,,0.01,VWS V12.08,2013-05-29 18:00:00,
2013-05-29 13:05:00,72.5,68.1,29.60,SE,142,22.0,24.0,86,0.00,,,0.01,VWS V12.08,2013-05-29 18:05:00,
2013-05-29 13:10:00,72.5,68.1,29.59,SE,140,10.0,24.0,86,0.00,,,0.01,VWS V12.08,2013-05-29 18:10:00,
2013-05-29 13:15:00,72.6,68.2,29.60,SE,143,15.0,24.0,86,0.00,,,0.01,VWS V12.08,2013-05-29 18:15:00,
2013-05-29 13:20:00,72.3,67.5,29.59,SW,215,11.0,24.0,85,0.00,,,0.01,VWS V12.08,2013-05-29 18:20:00,
2013-05-29 13:25:00,72.2,67.8,29.59,SE,137,9.0,24.0,86,0.00,,,0.01,VWS V12.08,2013-05-29 18:25:00,
2013-05-29 13:30:00,72.2,67.8,29.59,SE,132,11.0,24.0,86,0.00,,,0.01,VWS V12.08,2013-05-29 18:30:00,
2013-05-29 13:35:00,72.1,68.0,29.59,SSW,196,9.0,18.0,87,0.00,,,0.01,VWS V12.08,2013-05-29 18:35:00,
2013-05-29 13:40:00,72.3,68.2,29.58,SSE,151,12.0,18.0,87,0.00,,,0.01,VWS V12.08,2013-05-29 18:40:00,
2013-05-29 13:45:00,73.0,68.6,29.58,South,169,15.0,19.0,86,0.00,,,0.01,VWS V12.08,2013-05-29 18:45:00,
2013-05-29 13:50:00,73.9,68.8,29.58,South,180,5.0,19.0,84,0.00,,,0.01,VWS V12.08,2013-05-29 18:50:00,
2013-05-29 13:55:00,74.4,68.9,29.58,SSW,193,12.0,21.0,83,0.00,,,0.01,VWS V12.08,2013-05-29 18:55:00,
2013-05-29 14:00:00,74.7,68.8,29.58,South,173,15.0,21.0,82,0.00,,,0.01,VWS V12.08,2013-05-29 19:00:00,
2013-05-29 14:05:00,75.1,69.2,29.58,South,176,13.0,25.0,82,0.00,,,0.01,VWS V12.08,2013-05-29 19:05:00,
2013-05-29 14:10:00,75.5,69.3,29.58,South,169,12.0,25.0,81,0.00,,,0.01,VWS V12.08,2013-05-29 19:10:00,
2013-05-29 14:15:00,75.5,68.5,29.58,SW,218,12.0,25.0,79,0.00,,,0.01,VWS V12.08,2013-05-29 19:15:00,
2013-05-29 14:20:00,75.6,68.6,29.58,SSE,167,9.0,25.0,79,0.00,,,0.01,VWS V12.08,2013-05-29 19:20:00,
2013-05-29 14:25:00,75.8,67.3,29.57,SSE,165,19.0,25.0,75,0.00,,,0.01,VWS V12.08,2013-05-29 19:25:00,
2013-05-29 14:30:00,76.0,67.1,29.56,SW,225,19.0,25.0,74,0.00,,,0.01,VWS V12.08,2013-05-29 19:30:00,
2013-05-29 14:35:00,76.4,68.3,29.55,ESE,118,18.0,22.0,76,0.00,,,0.01,VWS V12.08,2013-05-29 19:35:00,
2013-05-29 14:40:00,76.6,67.7,29.55,SE,129,13.0,22.0,74,0.00,,,0.01,VWS V12.08,2013-05-29 19:40:00,
2013-05-29 14:45:00,76.8,67.5,29.54,NE,54,14.0,22.0,73,0.00,,,0.01,VWS V12.08,2013-05-29 19:45:00,
2013-05-29 14:50:00,77.2,67.9,29.53,SSE,157,16.0,23.0,73,0.00,,,0.01,VWS V12.08,2013-05-29 19:50:00,
2013-05-29 14:55:00,77.4,68.1,29.53,WSW,246,14.0,25.0,73,0.00,,,0.01,VWS V12.08,2013-05-29 19:55:00,
2013-05-29 15:00:00,77.4,67.7,29.53,SSE,157,20.0,25.0,72,0.00,,,0.01,VWS V12.08,2013-05-29 20:00:00,
2013-05-29 15:05:00,77.3,67.6,29.53,SSW,207,17.0,26.0,72,0.00,,,0.01,VWS V12.08,2013-05-29 20:05:00,
2013-05-29 15:10:00,77.5,69.0,29.53,SE,139,12.0,26.0,75,0.00,,,0.01,VWS V12.08,2013-05-29 20:10:00,
2013-05-29 15:15:00,77.4,67.7,29.52,SSE,153,18.0,26.0,72,0.00,,,0.01,VWS V12.08,2013-05-29 20:15:00,
2013-05-29 15:20:00,77.2,67.1,29.52,SE,142,16.0,26.0,71,0.00,,,0.01,VWS V12.08,2013-05-29 20:20:00,
2013-05-29 15:25:00,77.0,66.9,29.52,SE,138,18.0,26.0,71,0.00,,,0.01,VWS V12.08,2013-05-29 20:25:00,
2013-05-29 15:30:00,76.8,67.1,29.51,SE,140,11.0,26.0,72,0.00,,,0.01,VWS V12.08,2013-05-29 20:30:00,
2013-05-29 15:35:00,76.7,67.0,29.51,SSE,150,17.0,22.0,72,0.00,,,0.01,VWS V12.08,2013-05-29 20:35:00,
2013-05-29 15:40:00,76.6,66.5,29.51,SSE,155,14.0,24.0,71,0.00,,,0.01,VWS V12.08,2013-05-29 20:40:00,
2013-05-29 15:45:00,76.8,67.1,29.51,South,182,12.0,24.0,72,0.00,,,0.01,VWS V12.08,2013-05-29 20:45:00,
2013-05-29 15:50:00,76.8,67.1,29.51,SE,136,23.0,24.0,72,0.00,,,0.01,VWS V12.08,2013-05-29 20:50:00,
2013-05-29 15:55:00,76.9,67.6,29.51,South,175,15.0,25.0,73,0.00,,,0.01,VWS V12.08,2013-05-29 20:55:00,
2013-05-29 16:00:00,77.5,67.4,29.51,SSE,163,18.0,25.0,71,0.00,,,0.01,VWS V12.08,2013-05-29 21:00:00,
2013-05-29 16:05:00,77.6,67.1,29.51,SE,138,22.0,28.0,70,0.00,,,0.01,VWS V12.08,2013-05-29 21:05:00,
2013-05-29 16:10:00,77.4,66.9,29.51,South,183,10.0,28.0,70,0.00,,,0.01,VWS V12.08,2013-05-29 21:10:00,
2013-05-29 16:15:00,77.3,66.8,29.51,SE,134,17.0,28.0,70,0.00,,,0.01,VWS V12.08,2013-05-29 21:15:00,
2013-05-29 16:20:00,77.6,67.1,29.50,SE,140,13.0,28.0,70,0.00,,,0.01,VWS V12.08,2013-05-29 21:20:00,
2013-05-29 16:25:00,77.5,68.2,29.50,ESE,116,17.0,28.0,73,0.00,,,0.01,VWS V12.08,2013-05-29 21:25:00,
2013-05-29 16:30:00,77.3,68.0,29.49,South,178,14.0,28.0,73,0.00,,,0.01,VWS V12.08,2013-05-29 21:30:00,
2013-05-29 16:35:00,77.1,67.4,29.49,SSE,153,16.0,27.0,72,0.00,,,0.01,VWS V12.08,2013-05-29 21:35:00,
2013-05-29 16:40:00,77.2,67.1,29.49,SE,146,17.0,27.0,71,0.00,,,0.01,VWS V12.08,2013-05-29 21:40:00,
2013-05-29 16:45:00,77.4,67.7,29.49,SSE,157,7.0,27.0,72,0.00,,,0.01,VWS V12.08,2013-05-29 21:45:00,
2013-05-29 16:50:00,77.2,67.1,29.50,SE,132,11.0,27.0,71,0.00,,,0.01,VWS V12.08,2013-05-29 21:50:00,
2013-05-29 16:55:00,77.4,67.3,29.50,SSE,150,28.0,29.0,71,0.00,,,0.01,VWS V12.08,2013-05-29 21:55:00,
2013-05-29 17:00:00,77.2,67.5,29.51,South,172,22.0,29.0,72,0.00,,,0.01,VWS V12.08,2013-05-29 22:00:00,
2013-05-29 17:05:00,77.3,66.3,29.50,SSE,153,22.0,25.0,69,0.00,,,0.01,VWS V12.08,2013-05-29 22:05:00,
2013-05-29 17:10:00,77.2,66.2,29.49,South,175,14.0,27.0,69,0.00,,,0.01,VWS V12.08,2013-05-29 22:10:00,
2013-05-29 17:15:00,77.6,66.6,29.49,South,169,18.0,27.0,69,0.00,,,0.01,VWS V12.08,2013-05-29 22:15:00,
2013-05-29 17:20:00,77.6,66.2,29.50,South,183,10.0,27.0,68,0.00,,,0.01,VWS V12.08,2013-05-29 22:20:00,
2013-05-29 17:25:00,77.5,66.1,29.48,South,180,12.0,27.0,68,0.00,,,0.01,VWS V12.08,2013-05-29 22:25:00,
2013-05-29 17:30:00,77.4,66.4,29.49,SSE,160,14.0,27.0,69,0.00,,,0.01,VWS V12.08,2013-05-29 22:30:00,
2013-05-29 17:35:00,77.2,66.2,29.48,SE,130,12.0,20.0,69,0.00,,,0.01,VWS V12.08,2013-05-29 22:35:00,
2013-05-29 17:40:00,77.2,66.2,29.48,South,176,10.0,24.0,69,0.00,,,0.01,VWS V12.08,2013-05-29 22:40:00,
2013-05-29 17:45:00,77.3,66.3,29.48,SSE,150,21.0,24.0,69,0.00,,,0.01,VWS V12.08,2013-05-29 22:45:00,
2013-05-29 17:50:00,77.3,65.9,29.48,SE,140,13.0,25.0,68,0.00,,,0.01,VWS V12.08,2013-05-29 22:50:00,
2013-05-29 17:55:00,77.2,66.2,29.48,SSE,157,7.0,25.0,69,0.00,,,0.01,VWS V12.08,2013-05-29 22:55:00,
2013-05-29 18:00:00,76.5,66.0,29.48,SSE,151,13.0,25.0,70,0.00,,,0.01,VWS V12.08,2013-05-29 23:00:00,
2013-05-29 18:05:00,76.2,66.1,29.48,SE,140,9.0,22.0,71,0.00,,,0.01,VWS V12.08,2013-05-29 23:05:00,
2013-05-29 18:10:00,76.3,66.2,29.47,SSE,162,16.0,24.0,71,0.00,,,0.01,VWS V12.08,2013-05-29 23:10:00,
2013-05-29 18:15:00,76.7,66.2,29.47,SSE,152,17.0,24.0,70,0.00,,,0.01,VWS V12.08,2013-05-29 23:15:00,
2013-05-29 18:20:00,76.2,66.1,29.46,South,191,7.0,24.0,71,0.00,,,0.01,VWS V12.08,2013-05-29 23:20:00,
2013-05-29 18:25:00,75.9,66.6,29.46,ESE,117,14.0,24.0,73,0.00,,,0.01,VWS V12.08,2013-05-29 23:25:00,
2013-05-29 18:30:00,75.6,66.7,29.47,SE,131,9.0,24.0,74,0.00,,,0.01,VWS V12.08,2013-05-29 23:30:00,
2013-05-29 18:35:00,75.3,66.8,29.46,ESE,113,8.0,18.0,75,0.00,,,0.01,VWS V12.08,2013-05-29 23:35:00,
2013-05-29 18:40:00,75.1,67.0,29.46,ESE,113,12.0,18.0,76,0.00,,,0.01,VWS V12.08,2013-05-29 23:40:00,
2013-05-29 18:45:00,74.9,67.2,29.46,East,101,13.0,18.0,77,0.00,,,0.01,VWS V12.08,2013-05-29 23:45:00,
2013-05-29 18:50:00,74.7,67.0,29.46,SE,126,6.0,18.0,77,0.00,,,0.01,VWS V12.08,2013-05-29 23:50:00,
2013-05-29 18:55:00,74.5,67.2,29.47,WNW,298,3.0,18.0,78,0.00,,,0.01,VWS V12.08,2013-05-29 23:55:00,
2013-05-29 19:00:00,74.4,67.1,29.47,SSE,160,13.0,18.0,78,0.00,,,0.01,VWS V12.08,2013-05-30 00:00:00,
2013-05-29 19:05:00,74.2,67.6,29.47,East,90,15.0,17.0,80,0.00,,,0.01,VWS V12.08,2013-05-30 00:05:00,
2013-05-29 19:10:00,74.0,67.4,29.49,ESE,120,11.0,17.0,80,0.00,,,0.01,VWS V12.08,2013-05-30 00:10:00,
2013-05-29 19:15:00,74.0,67.4,29.50,SSE,150,10.0,19.0,80,0.00,,,0.01,VWS V12.08,2013-05-30 00:15:00,
2013-05-29 19:20:00,73.9,67.7,29.49,SE,134,14.0,19.0,81,0.00,,,0.01,VWS V12.08,2013-05-30 00:20:00,
2013-05-29 19:25:00,73.9,67.7,29.49,SSW,209,10.0,19.0,81,0.00,,,0.01,VWS V12.08,2013-05-30 00:25:00,
2013-05-29 19:30:00,73.7,67.9,29.51,SSE,148,12.0,19.0,82,0.00,,,0.01,VWS V12.08,2013-05-30 00:30:00,
2013-05-29 19:35:00,73.6,67.8,29.51,SSE,148,18.0,27.0,82,0.00,,,0.01,VWS V12.08,2013-05-30 00:35:00,
2013-05-29 19:40:00,73.3,67.5,29.51,SE,144,14.0,27.0,82,0.00,,,0.01,VWS V12.08,2013-05-30 00:40:00,
2013-05-29 19:45:00,73.1,67.3,29.51,South,172,10.0,27.0,82,0.00,,,0.01,VWS V12.08,2013-05-30 00:45:00,
2013-05-29 19:50:00,72.8,67.3,29.51,SSE,161,15.0,27.0,83,0.00,,,0.01,VWS V12.08,2013-05-30 00:50:00,
2013-05-29 19:55:00,72.6,67.2,29.51,ESE,117,14.0,27.0,83,0.00,,,0.01,VWS V12.08,2013-05-30 00:55:00,
2013-05-29 20:00:00,72.4,66.9,29.51,SE,140,9.0,27.0,83,0.00,,,0.01,VWS V12.08,2013-05-30 01:00:00,
2013-05-29 20:05:00,72.1,66.7,29.51,East,98,12.0,21.0,83,0.00,,,0.01,VWS V12.08,2013-05-30 01:05:00,
2013-05-29 20:10:00,72.0,66.9,29.50,ESE,103,7.0,21.0,84,0.00,,,0.01,VWS V12.08,2013-05-30 01:10:00,
2013-05-29 20:15:00,71.7,66.6,29.51,South,182,7.0,21.0,84,0.00,,,0.01,VWS V12.08,2013-05-30 01:15:00,
2013-05-29 20:20:00,71.5,66.4,29.51,SE,126,15.0,21.0,84,0.00,,,0.01,VWS V12.08,2013-05-30 01:20:00,
2013-05-29 20:25:00,71.3,66.6,29.51,ESE,109,13.0,21.0,85,0.00,,,0.01,VWS V12.08,2013-05-30 01:25:00,
2013-05-29 20:30:00,71.1,66.7,29.50,ESE,123,10.0,21.0,86,0.00,,,0.01,VWS V12.08,2013-05-30 01:30:00,
2013-05-29 20:35:00,71.0,66.6,29.50,ESE,120,7.0,15.0,86,0.00,,,0.01,VWS V12.08,2013-05-30 01:35:00,
2013-05-29 20:40:00,71.0,66.9,29.50,SE,126,12.0,21.0,87,0.00,,,0.01,VWS V12.08,2013-05-30 01:40:00,
2013-05-29 20:45:00,70.9,66.8,29.50,SE,138,9.0,21.0,87,0.00,,,0.01,VWS V12.08,2013-05-30 01:45:00,
2013-05-29 20:50:00,70.9,66.8,29.50,ESE,120,9.0,21.0,87,0.00,,,0.01,VWS V12.08,2013-05-30 01:50:00,
2013-05-29 20:55:00,70.9,66.8,29.50,SE,129,12.0,21.0,87,0.00,,,0.01,VWS V12.08,2013-05-30 01:55:00,
2013-05-29 21:00:00,70.9,66.8,29.50,SE,136,6.0,21.0,87,0.00,,,0.01,VWS V12.08,2013-05-30 02:00:00,
2013-05-29 21:05:00,70.9,66.8,29.50,WSW,240,2.0,15.0,87,0.00,,,0.01,VWS V12.08,2013-05-30 02:05:00,
2013-05-29 21:10:00,70.8,67.1,29.49,ESE,111,7.0,17.0,88,0.00,,,0.01,VWS V12.08,2013-05-30 02:10:00,
2013-05-29 21:15:00,70.6,66.9,29.49,ESE,112,4.0,17.0,88,0.00,,,0.01,VWS V12.08,2013-05-30 02:15:00,
2013-05-29 21:20:00,70.4,67.0,29.50,SSE,160,6.0,17.0,89,0.00,,,0.01,VWS V12.08,2013-05-30 02:20:00,
2013-05-29 21:25:00,70.1,67.0,29.50,SSE,156,10.0,17.0,90,0.01,,,0.02,VWS V12.08,2013-05-30 02:25:00,
2013-05-29 21:30:00,69.9,67.2,29.50,SE,135,7.0,17.0,91,0.02,,,0.03,VWS V12.08,2013-05-30 02:30:00,
2013-05-29 21:35:00,69.8,67.4,29.51,SE,138,14.0,19.0,92,0.03,,,0.04,VWS V12.08,2013-05-30 02:35:00,
2013-05-29 21:40:00,69.9,67.5,29.51,SE,144,14.0,20.0,92,0.04,,,0.05,VWS V12.08,2013-05-30 02:40:00,
2013-05-29 21:44:00,69.9,67.5,29.51,ESE,108,13.0,20.0,92,0.05,,,0.06,VWS V12.08,2013-05-30 02:44:00,
2013-05-29 21:49:00,69.7,67.3,29.51,SE,142,17.0,24.0,92,0.06,,,0.07,VWS V12.08,2013-05-30 02:49:00,
2013-05-29 21:54:00,69.6,67.2,29.51,SSE,163,9.0,25.0,92,0.07,,,0.08,VWS V12.08,2013-05-30 02:54:00,
2013-05-29 21:59:00,69.3,66.6,29.50,SE,139,9.0,25.0,91,0.08,,,0.09,VWS V12.08,2013-05-30 02:59:00,
2013-05-29 22:04:00,69.0,66.3,29.50,SSE,165,15.0,15.0,91,0.08,,,0.09,VWS V12.08,2013-05-30 03:04:00,
2013-05-29 22:09:00,68.8,66.1,29.50,South,178,4.0,17.0,91,0.09,,,0.10,VWS V12.08,2013-05-30 03:09:00,
2013-05-29 22:14:00,68.6,65.9,29.49,SE,140,7.0,17.0,91,0.10,,,0.11,VWS V12.08,2013-05-30 03:14:00,
2013-05-29 22:19:00,68.5,65.5,29.49,SSE,160,13.0,19.0,90,0.10,,,0.11,VWS V12.08,2013-05-30 03:19:00,
2013-05-29 22:24:00,68.3,65.6,29.50,ESE,107,11.0,19.0,91,0.11,,,0.12,VWS V12.08,2013-05-30 03:24:00,
2013-05-29 22:29:00,67.9,65.2,29.50,SE,143,9.0,19.0,91,0.12,,,0.13,VWS V12.08,2013-05-30 03:29:00,
2013-05-29 22:34:00,67.3,64.6,29.51,SE,142,14.0,22.0,91,0.12,,,0.15,VWS V12.08,2013-05-30 03:34:00,
2013-05-29 22:39:00,66.8,63.8,29.51,ESE,114,11.0,22.0,90,0.13,,,0.17,VWS V12.08,2013-05-30 03:39:00,
2013-05-29 22:44:00,66.1,63.4,29.52,SE,127,11.0,22.0,91,0.14,,,0.18,VWS V12.08,2013-05-30 03:44:00,
2013-05-29 22:49:00,65.4,62.7,29.51,SE,127,10.0,22.0,91,0.16,,,0.19,VWS V12.08,2013-05-30 03:49:00,
2013-05-29 22:54:00,65.0,62.6,29.52,SSW,198,10.0,22.0,92,0.17,,,0.20,VWS V12.08,2013-05-30 03:54:00,
2013-05-29 22:59:00,64.6,62.5,29.51,ESE,109,9.0,22.0,93,0.17,,,0.20,VWS V12.08,2013-05-30 03:59:00,
2013-05-29 23:01:00,64.5,62.4,29.50,SE,136,6.0,7.0,93,0.17,,,0.20,VWS V12.08,2013-05-30 04:01:00,
2013-05-29 23:06:00,64.4,62.3,29.50,ESE,115,4.0,12.0,93,0.11,,,0.20,VWS V12.08,2013-05-30 04:06:00,
2013-05-29 23:11:00,64.3,61.9,29.49,ESE,107,12.0,14.0,92,0.11,,,0.20,VWS V12.08,2013-05-30 04:11:00,
2013-05-29 23:16:00,64.4,61.1,29.49,ESE,108,10.0,14.0,89,0.11,,,0.20,VWS V12.08,2013-05-30 04:16:00,
2013-05-29 23:21:00,64.7,60.8,29.49,ESE,119,9.0,14.0,87,0.11,,,0.20,VWS V12.08,2013-05-30 04:21:00,
2013-05-29 23:26:00,64.6,61.0,29.49,ESE,113,5.0,14.0,88,0.11,,,0.20,VWS V12.08,2013-05-30 04:26:00,
2013-05-29 23:31:00,64.4,61.1,29.49,East,95,7.0,10.0,89,0.11,,,0.20,VWS V12.08,2013-05-30 04:31:00,
2013-05-29 23:36:00,64.1,61.1,29.48,East,88,8.0,13.0,90,0.06,,,0.20,VWS V12.08,2013-05-30 04:36:00,
2013-05-29 23:41:00,63.9,61.5,29.48,East,86,2.0,13.0,92,0.06,,,0.20,VWS V12.08,2013-05-30 04:41:00,
2013-05-29 23:46:00,63.8,61.7,29.47,East,101,6.0,13.0,93,0.06,,,0.20,VWS V12.08,2013-05-30 04:46:00,
2013-05-29 23:51:00,63.7,61.6,29.47,East,85,2.0,13.0,93,0.06,,,0.20,VWS V12.08,2013-05-30 04:51:00,
2013-05-29 23:56:00,63.7,62.0,29.47,ESE,105,12.0,14.0,94,0.06,,,0.20,VWS V12.08,2013-05-30 04:56:00,